Weather History for Chitose AB, Japan

Change the Weather History Date:

Tuesday, February 5, 2013

  Actual Average Record
Temperature  
Mean Temperature 19 °F -  
Max Temperature 26 °F 30 °F 39 °F (2002)
Min Temperature 12 °F 10 °F -7 °F (1998)
Degree Days  
Heating Degree Days 46    
Moisture  
Dew Point 8 °F    
Average Humidity 57    
Maximum Humidity 86    
Minimum Humidity 40    
Precipitation  
Precipitation 0.00 in - - ()
Sea Level Pressure  
Sea Level Pressure 29.94 in    
Wind  
Wind Speed 13 mph ()    
Max Wind Speed 24 mph    
Max Gust Speed 31 mph    
Visibility 6.2 miles    
Events Snow    
Averages and records for this station are not official NWS values.
T = Trace of Precipitation, MM = Missing Value Source: Averaged Metar Reports

Daily Weather History Graph

Daily Weather History Graph

Search for Another Location

Airport:

Trip Planner

Search our weather history database for the weather conditions in past years. The results will help you decide how hot, cold, wet, or windy it might be!

Date:

Astronomy

Feb. 05, 2013 Rise Set
Actual Time 6:43 AM JST 4:51 PM JST
Civil Twilight 6:14 AM JST 5:21 PM JST
Nautical Twilight 5:40 AM JST 5:54 PM JST
Astronomical Twilight 5:07 AM JST 6:27 PM JST
Moon 1:45 AM JST (2/5) 11:30 AM JST (2/5)
Length of Visible Light 11h 06m
Length of Day
10h 07m
Waning Crescent, 33% of the Moon is Illuminated
Feb 5
Waning Crescent
Feb 10
New
Feb 18
First Quarter
Feb 26
Full
Mar 5
Last Quarter

Hourly Weather History & Observations

Time (JST) Temp. Windchill Dew Point Humidity Pressure Visibility Wind Dir Wind Speed Gust Speed Precip Events Conditions
12:00 AM 24.8 °F 10.3 °F 19.4 °F 80% 29.68 in 6.2 mi NW 20.7 mph - N/A Snow Light Snow Showers
12:30 AM 24.8 °F 12.4 °F 19.4 °F 80% 29.71 in 6.2 mi NW 15.0 mph - N/A Snow Light Snow Showers
1:00 AM 23.0 °F 10.1 °F 17.6 °F 80% 29.71 in 6.2 mi NNW 15.0 mph - N/A   Scattered Clouds
1:30 AM 23.0 °F 8.7 °F 17.6 °F 80% 29.71 in 6.2 mi NW 18.4 mph - N/A Snow Light Snow Showers
2:00 AM 21.2 °F 8.3 °F 17.6 °F 86% 29.74 in 6.2 mi NW 13.8 mph - N/A   Partly Cloudy
2:30 AM 19.4 °F 9.5 °F 15.8 °F 86% 29.74 in 6.2 mi NW 8.1 mph - N/A   Partly Cloudy
3:00 AM 17.6 °F 6.4 °F 12.2 °F 79% 29.77 in 6.2 mi NW 9.2 mph - N/A   Partly Cloudy
3:30 AM 21.2 °F 8.9 °F 10.4 °F 63% 29.77 in 6.2 mi NW 12.7 mph - N/A   Partly Cloudy
4:00 AM 21.2 °F 8.3 °F 14.0 °F 74% 29.80 in 6.2 mi North 13.8 mph - N/A Snow Light Snow Showers
4:30 AM 19.4 °F 6.0 °F 15.8 °F 86% 29.83 in 6.2 mi NNW 13.8 mph - N/A Snow Light Snow Showers
5:00 AM 19.4 °F 10.4 °F 14.0 °F 80% 29.83 in 6.2 mi NW 6.9 mph - N/A   Partly Cloudy
5:30 AM 19.4 °F 5.5 °F 6.8 °F 58% 29.83 in 6.2 mi WNW 15.0 mph - N/A   Partly Cloudy
6:00 AM 19.4 °F 4.1 °F 5.0 °F 54% 29.86 in 6.2 mi WNW 18.4 mph - N/A   Partly Cloudy
6:30 AM 19.4 °F 5.0 °F 5.0 °F 54% 29.86 in 6.2 mi WNW 16.1 mph 28.8 mph N/A   Partly Cloudy
7:00 AM 19.4 °F 6.0 °F 5.0 °F 54% 29.89 in 6.2 mi WNW 13.8 mph - N/A   Partly Cloudy
7:30 AM 19.4 °F 5.0 °F 5.0 °F 54% 29.89 in 6.2 mi WNW 16.1 mph - N/A   Partly Cloudy
8:00 AM 21.2 °F 6.8 °F 5.0 °F 50% 29.89 in 6.2 mi WNW 17.3 mph - N/A   Partly Cloudy
8:30 AM 21.2 °F 6.8 °F 5.0 °F 50% 29.92 in 6.2 mi WNW 17.3 mph - N/A   Partly Cloudy
8:33 AM 21.2 °F 6.4 °F 5.0 °F 50% 29.92 in 6.2 mi WNW 18.4 mph 31.1 mph N/A   Partly Cloudy
9:00 AM 23.0 °F 9.2 °F 6.8 °F 50% 29.92 in 6.2 mi NW 17.3 mph - N/A   Partly Cloudy
9:30 AM 23.0 °F 7.6 °F 6.8 °F 50% 29.92 in 6.2 mi NW 21.9 mph - N/A   Partly Cloudy
10:00 AM 23.0 °F 9.2 °F 6.8 °F 50% 29.92 in 6.2 mi WNW 17.3 mph - N/A   Partly Cloudy
10:30 AM 24.8 °F 11.5 °F 5.0 °F 43% 29.95 in 6.2 mi WNW 17.3 mph - N/A   Partly Cloudy
11:00 AM 24.8 °F 12.9 °F 6.8 °F 46% 29.95 in 6.2 mi WNW 13.8 mph - N/A   Partly Cloudy
11:30 AM 24.8 °F 11.5 °F 6.8 °F 46% 29.95 in 6.2 mi NW 17.3 mph - N/A   Partly Cloudy
12:00 PM 24.8 °F 9.6 °F 8.6 °F 50% 29.98 in 6.2 mi NW 23.0 mph - N/A   Scattered Clouds
12:30 PM 26.6 °F 13.4 °F 6.8 °F 43% 29.98 in 6.2 mi NW 18.4 mph - N/A   Scattered Clouds
12:47 PM 24.8 °F 11.1 °F 5.0 °F 43% 29.98 in 6.2 mi NNE 18.4 mph - N/A   Scattered Clouds
1:00 PM 24.8 °F 13.4 °F 6.8 °F 46% 29.95 in 6.2 mi NW 12.7 mph - N/A   Scattered Clouds
1:07 PM 24.8 °F 14.6 °F 5.0 °F 43% 29.98 in 6.2 mi NNE 10.4 mph - N/A   Scattered Clouds
1:30 PM 24.8 °F 14.0 °F 8.6 °F 50% 29.98 in 6.2 mi North 11.5 mph - N/A   Mostly Cloudy
2:00 PM 24.8 °F 16.9 °F 6.8 °F 46% 29.98 in 6.2 mi North 6.9 mph - N/A   Mostly Cloudy
2:21 PM 26.6 °F 16.2 °F 5.0 °F 40% 30.01 in 6.2 mi WNW 11.5 mph - N/A   Scattered Clouds
2:23 PM 26.6 °F 15.7 °F 5.0 °F 40% 30.01 in 6.2 mi North 12.7 mph - N/A   Scattered Clouds
2:30 PM 26.6 °F 15.7 °F 5.0 °F 40% 30.01 in 6.2 mi North 12.7 mph - N/A   Scattered Clouds
2:40 PM 24.8 °F 16.9 °F 10.4 °F 54% 30.01 in 6.2 mi Variable 6.9 mph - N/A   Mostly Cloudy
3:00 PM 24.8 °F 15.3 °F 12.2 °F 59% 30.04 in 6.2 mi NNE 9.2 mph - N/A   Mostly Cloudy
3:30 PM 24.8 °F 16.1 °F 8.6 °F 50% 30.04 in 6.2 mi North 8.1 mph - N/A   Mostly Cloudy
3:49 PM 24.8 °F 9.3 °F 5.0 °F 43% 30.01 in 6.2 mi NW 24.2 mph - N/A   Scattered Clouds
4:00 PM 24.8 °F 10.0 °F 5.0 °F 43% 30.01 in 6.2 mi NW 21.9 mph - N/A   Scattered Clouds
4:30 PM 24.8 °F 10.7 °F 5.0 °F 43% 30.04 in 6.2 mi NW 19.6 mph - N/A   Partly Cloudy
5:00 PM 23.0 °F 10.6 °F 6.8 °F 50% 30.04 in 6.2 mi NW 13.8 mph - N/A   Scattered Clouds
5:30 PM 23.0 °F 12.4 °F 6.8 °F 50% 30.04 in 6.2 mi NW 10.4 mph - N/A   Partly Cloudy
6:00 PM 23.0 °F 13.9 °F 6.8 °F 50% 30.06 in 6.2 mi NNW 8.1 mph - N/A   Partly Cloudy
6:30 PM 21.2 °F 14.9 °F 8.6 °F 58% 30.06 in 6.2 mi WSW 4.6 mph - N/A   Scattered Clouds
7:00 PM 21.2 °F 14.9 °F 6.8 °F 54% 30.06 in 6.2 mi West 4.6 mph - N/A   Scattered Clouds
7:30 PM 21.2 °F 14.9 °F 6.8 °F 54% 30.06 in 6.2 mi Variable 4.6 mph - N/A   Mostly Cloudy
8:00 PM 19.4 °F 12.8 °F 8.6 °F 63% 30.06 in 6.2 mi West 4.6 mph - N/A   Mostly Cloudy
8:30 PM 21.2 °F 13.6 °F 6.8 °F 54% 30.06 in 6.2 mi West 5.8 mph - N/A   Mostly Cloudy
9:00 PM 19.4 °F 14.3 °F 6.8 °F 58% 30.09 in 6.2 mi Variable 3.5 mph - N/A   Scattered Clouds
9:30 PM 17.6 °F 5.7 °F 6.8 °F 63% 30.06 in 6.2 mi WNW 10.4 mph - N/A   Partly Cloudy
10:00 PM 17.6 °F - 6.8 °F 63% 30.06 in 6.2 mi Variable 2.3 mph - N/A   Partly Cloudy
10:30 PM 12.2 °F 6.1 °F 5.0 °F 73% 30.06 in 6.2 mi East 3.5 mph - N/A   Partly Cloudy
11:00 PM 12.2 °F - 5.0 °F 73% 30.06 in 6.2 mi Variable 1.2 mph - N/A   Partly Cloudy
11:30 PM 12.2 °F 6.1 °F 6.8 °F 79% 30.06 in 6.2 mi East 3.5 mph - N/A   Partly Cloudy